Date,TemperatureHighF,TemperatureAvgF,TemperatureLowF,DewpointHighF,DewpointAvgF,DewpointLowF,HumidityHigh,HumidityAvg,HumidityLow,PressureMaxIn,PressureMinIn,WindSpeedMaxMPH,WindSpeedAvgMPH,GustSpeedMaxMPH,PrecipitationSumIn
2013-2-1,71.6,55.4,49.3,30.8,25.5,22.1,38,32,22,30.06,29.94,3,0,3,0.00
2013-2-2,56.7,50.8,48.2,38.8,32.9,25.8,61,51,34,30.15,30.06,3,0,3,0.00
2013-2-3,62.2,53.7,47.1,34.1,28.4,23.0,56,39,25,30.09,29.97,4,0,4,0.00
2013-2-4,59.4,55.8,49.6,41.5,32.1,29.2,65,42,34,30.03,29.91,3,0,3,0.00
2013-2-5,56.5,56.1,48.9,29.2,28.7,19.8,35,35,30,30.00,29.91,0,0,0,0.00
2013-2-6,63.5,51.2,43.2,31.4,24.4,21.4,50,36,24,30.03,29.94,6,0,6,0.00
2013-2-7,58.1,49.6,44.6,37.5,26.6,17.7,60,42,25,30.03,29.85,9,1,9,0.12
2013-2-8,59.7,49.6,41.7,30.2,23.0,16.5,54,37,25,29.88,29.77,6,0,6,0.08
2013-2-9,63.3,51.5,43.7,25.9,18.0,12.8,30,26,24,29.94,29.83,5,0,5,0.00
2013-2-10,63.3,50.4,41.2,28.6,21.8,16.4,49,33,24,29.97,29.85,5,0,5,0.00
2013-2-11,70.5,54.8,46.4,30.2,22.1,16.0,47,28,22,30.09,29.91,5,0,5,0.00
2013-2-12,66.9,52.7,45.3,37.8,28.1,22.0,60,41,23,30.21,30.09,4,0,4,0.00
2013-2-13,63.3,51.7,45.9,40.8,30.5,20.5,63,46,24,30.18,30.06,3,0,3,0.00
2013-2-14,71.2,56.2,46.0,45.0,30.0,22.5,65,40,22,30.09,29.97,5,0,5,0.00
2013-2-15,77.2,62.0,50.9,34.3,26.0,19.6,36,26,21,30.12,30.03,4,0,4,0.00
2013-2-16,73.9,58.6,49.6,31.8,26.1,21.1,46,29,21,30.06,29.88,4,0,4,0.00
2013-2-17,67.5,53.7,46.2,37.0,28.3,19.6,61,40,23,29.91,29.80,5,0,5,0.00
2013-2-18,57.4,48.9,44.6,31.9,24.0,17.1,56,39,25,29.88,29.80,11,2,11,0.00
2013-2-19,52.7,46.4,41.5,31.8,21.9,13.3,55,38,27,29.83,29.59,13,2,13,0.31
2013-2-20,65.1,49.6,38.7,26.7,18.4,12.5,39,29,23,29.91,29.71,4,0,4,0.00
2013-2-21,65.7,52.0,43.2,26.9,20.4,15.4,37,29,23,30.00,29.88,4,0,4,0.00
2013-2-22,65.8,52.6,43.9,36.5,25.8,21.3,57,37,23,30.09,30.00,6,0,6,0.00
2013-2-23,65.5,53.5,47.3,35.3,23.2,16.5,55,31,23,30.12,30.00,6,0,6,0.00
2013-2-24,67.3,54.3,47.5,29.4,22.0,15.2,47,29,23,30.09,30.00,6,0,6,0.00
2013-2-25,64.8,53.2,45.1,37.5,27.9,21.5,60,40,24,30.12,30.00,5,0,5,0.00
2013-2-26,69.8,53.7,44.1,29.8,23.4,18.2,41,31,22,30.06,29.97,4,0,4,0.00
2013-2-27,67.5,54.0,44.8,33.4,25.9,21.1,52,35,23,30.21,30.06,5,0,5,0.00
2013-2-28,66.0,55.4,50.2,42.0,34.4,28.0,64,47,25,30.30,30.21,6,0,6,0.00